Regional Weather Roundup
Issued by NWS Northern Indiana

Home | Current Version | Previous Version | Text Only | Print | Product List | Glossary On
Versions: 1 2 3 4 5 6 7 8 9 10 11 12 13 14 15 16 17 18 19 20 21 22 23 24 25 26 27 28 29 30 31 32 33 34 35 36 37 38 39 40 41 42 43 44 45 46 47 48 49 50
000
ASUS43 KIWX 200910
RWRIWX

KIWX WEATHER ROUNDUP
NATIONAL WEATHER SERVICE NORTHERN INDIANA
500 AM EDT WED AUG 20 2014

NOTE: "FAIR" INDICATES FEW OR NO CLOUDS BELOW 12,000 FEET WITH NO
SIGNIFICANT WEATHER AND/OR OBSTRUCTIONS TO VISIBILITY.

* THESE STATIONS ARE NOT UNDER NWS QUALITY CONTROL. THEY ALSO MAY NOT
  REPORT WEATHER SUCH AS PRECIPITATION OR FOG.

INZ001>027-201000-
NORTHERN INDIANA

CITY           SKY/WX    TMP DP  RH WIND       PRES   REMARKS
GARY*          CLEAR     69  66  90 SW3       29.82R
VALPARAISO     CLEAR     65  64  97 SW3       29.82R
MICHIGAN CITY* CLEAR     64  64 100 S3        29.81R
LAPORTE*       CLEAR     65  65 100 W5        29.82R
KNOX*          CLEAR     66  64  91 W3        29.81R
SOUTH BEND     CLEAR     65  62  90 SW3       29.81
GOSHEN         CLEAR     66  63  90 SW5       29.81R
MONTICELLO*    CLEAR     64  64  99 SW3       29.82S
LOGANSPORT*    CLEAR     63  61  94 SW3       29.84R FOG
ROCHESTER*     CLEAR     68  68 100 CALM      29.82S FOG
WARSAW*        MOCLDY    64  64 100 CALM      29.82S
ANGOLA*        PTCLDY    66  57  72 SW5       29.81R
FORT WAYNE     MOCLDY    66  64  93 SW8       29.84R
HUNTINGTON*    PTCLDY    66  65  96 SW5       29.83R
PERU/GRISSOM   CLEAR     65  65 100 S3        29.83R
MARION*        CLEAR     64  63  96 SW3       29.84S

$$
INZ028>050-201000-
CENTRAL INDIANA

CITY           SKY/WX    TMP DP  RH WIND       PRES   REMARKS
LAFAYETTE      FOG       62  62 100 CALM      29.84R VSB 3/4
KOKOMO*        CLEAR     64  63  94 SW8       29.84S
MUNCIE*        PTCLDY    67  63  87 SW8       29.85R
INDIANAPOLIS   CLEAR     65  63  93 SW7       29.85R

$$
MIZ043>046-050>051-056>058-064>065-071>073-077>080-201000-
SOUTHWEST LOWER MICHIGAN

CITY           SKY/WX    TMP DP  RH WIND       PRES   REMARKS
BATTLE CREEK   PTCLDY    66  64  93 S6        29.80R FOG
BENTON HARBOR  CLEAR     67  65  93 CALM      29.79R
COLDWATER*     CLOUDY    67  66  96 SW5       29.80S FOG
HILLSDALE*     PTCLDY    66  66 100 CALM      29.81R FOG
HOLLAND        CLEAR     68  65  90 CALM      29.79R
GRAND RAPIDS   MOCLDY    66  66 100 W6        29.79R FOG
KALAMAZOO      CLEAR     67  65  93 CALM      29.80R
STURGIS*       CLEAR     63  63 100 CALM      29.80S FOG
THREE RIVERS*  FAIR      65  65  98 S3        29.81R FOG

$$
OHZ001>008-015>018-024>025-201000-
NORTHWEST OHIO

CITY           SKY/WX    TMP DP  RH WIND       PRES   REMARKS
WAUSEON*       FAIR      64  64 100 S3        29.81S FOG
DEFIANCE       MOCLDY    68  65  90 S6        29.81R
FINDLAY        CLOUDY    68  65  90 S9        29.82R
TOLEDO EXPRESS MOCLDY    66  65  96 S5        29.80R
TOLEDO METCALF CLOUDY    66  64  93 S6        29.81S
LIMA           CLOUDY    70  66  87 SW6       29.84R

$$
&&


USA.gov is the U.S. government's official web portal to all federal, state and local government web resources and services.